contact:dominique.lefevre@mio.osupytheas.fr, maurice.libes@osupytheas.fr, didier.mallarino@osupytheas.fr
Project:EMSO http://www.emso-fr.org/EMSO-France
Depth: 2436.0 m
Title:EMSO Ligure Ouest : Data MII capteur CSTAR
DateTime,Latitude,Longitude,Instrument_Serial,Reference_Counts,Signal_Counts,Corrected_Signal_raw_counts,Calculated_Beam_c_inverse_meters,Internal_thermistor_counts
DateTime,Latitude,Longitude,Instrument_Serial,Reference_Counts,Signal_Counts,Corrected_Signal_raw_counts,Calculated_Beam_c_inverse_meters,Internal_thermistor_counts
2022-10-18T00:00:56,42.805,6.029,CST-1368DR,4537,5034,11806,01.119,551
2022-10-18T00:03:57,42.805,6.029,CST-1368DR,4537,5035,11808,01.118,551
2022-10-18T00:06:59,42.805,6.029,CST-1368DR,4537,5034,11806,01.119,551
2022-10-18T00:10:00,42.805,6.029,CST-1368DR,4537,5035,11808,01.118,551
2022-10-18T00:13:02,42.805,6.029,CST-1368DR,4537,5035,11808,01.118,551
2022-10-18T00:16:03,42.805,6.029,CST-1368DR,4537,5037,11812,01.117,551
2022-10-18T00:19:05,42.805,6.029,CST-1368DR,4537,5036,11811,01.117,551
2022-10-18T00:22:07,42.805,6.029,CST-1368DR,4537,5035,11808,01.118,551
2022-10-18T00:25:08,42.805,6.029,CST-1368DR,4537,5036,11811,01.117,551
2022-10-18T00:28:10,42.805,6.029,CST-1368DR,4537,5033,11805,01.119,551
2022-10-18T00:31:11,42.805,6.029,CST-1368DR,4537,5032,11802,01.120,551
2022-10-18T00:34:13,42.805,6.029,CST-1368DR,4537,5034,11807,01.118,551
2022-10-18T00:37:14,42.805,6.029,CST-1368DR,4537,5036,11812,01.117,551
2022-10-18T00:40:16,42.805,6.029,CST-1368DR,4537,5037,11814,01.116,551
2022-10-18T00:43:18,42.805,6.029,CST-1368DR,4537,5035,11808,01.118,551
2022-10-18T00:46:19,42.805,6.029,CST-1368DR,4537,5036,11812,01.117,551
2022-10-18T00:49:21,42.805,6.029,CST-1368DR,4537,5036,11811,01.117,551
2022-10-18T00:52:22,42.805,6.029,CST-1368DR,4537,5036,11812,01.117,551
2022-10-18T00:55:24,42.805,6.029,CST-1368DR,4537,5037,11813,01.116,551
2022-10-18T00:58:26,42.805,6.029,CST-1368DR,4538,5035,11805,01.119,551
2022-10-18T01:01:27,42.805,6.029,CST-1368DR,4537,5033,11803,01.120,551
2022-10-18T01:04:29,42.805,6.029,CST-1368DR,4538,5040,11817,01.115,551
2022-10-18T01:07:30,42.805,6.029,CST-1368DR,4537,5037,11812,01.117,551
2022-10-18T01:10:32,42.805,6.029,CST-1368DR,4538,5038,11813,01.116,551
2022-10-18T01:13:33,42.805,6.029,CST-1368DR,4537,5035,11808,01.118,551
2022-10-18T01:16:35,42.805,6.029,CST-1368DR,4537,5037,11813,01.116,551
2022-10-18T01:19:37,42.805,6.029,CST-1368DR,4538,5038,11813,01.116,551
2022-10-18T01:22:38,42.805,6.029,CST-1368DR,4537,5038,11815,01.116,551
2022-10-18T01:25:40,42.805,6.029,CST-1368DR,4538,5035,11807,01.118,551
2022-10-18T01:28:41,42.805,6.029,CST-1368DR,4537,5038,11815,01.116,551
2022-10-18T01:31:43,42.805,6.029,CST-1368DR,4537,5037,11814,01.116,551
2022-10-18T01:34:44,42.805,6.029,CST-1368DR,4537,5036,11812,01.117,551
2022-10-18T01:37:46,42.805,6.029,CST-1368DR,4537,5030,11796,01.122,551
2022-10-18T01:40:48,42.805,6.029,CST-1368DR,4537,5030,11798,01.121,551
2022-10-18T01:43:49,42.805,6.029,CST-1368DR,4537,5032,11801,01.120,551
2022-10-18T01:46:51,42.805,6.029,CST-1368DR,4537,5038,11815,01.116,551
2022-10-18T01:49:52,42.805,6.029,CST-1368DR,4537,5035,11809,01.118,551
2022-10-18T01:52:54,42.805,6.029,CST-1368DR,4537,5037,11813,01.116,551
2022-10-18T01:55:56,42.805,6.029,CST-1368DR,4537,5030,11796,01.122,551
2022-10-18T01:58:57,42.805,6.029,CST-1368DR,4537,5034,11806,01.119,551
2022-10-18T02:01:59,42.805,6.029,CST-1368DR,4537,5037,11813,01.116,551
2022-10-18T02:05:00,42.805,6.029,CST-1368DR,4537,5032,11802,01.120,551
2022-10-18T02:08:02,42.805,6.029,CST-1368DR,4537,5034,11806,01.119,551
2022-10-18T02:11:03,42.805,6.029,CST-1368DR,4537,5035,11808,01.118,551
2022-10-18T02:14:05,42.805,6.029,CST-1368DR,4537,5030,11797,01.122,551
2022-10-18T02:17:07,42.805,6.029,CST-1368DR,4537,5037,11813,01.116,551
2022-10-18T02:20:08,42.805,6.029,CST-1368DR,4537,5035,11809,01.118,551
2022-10-18T02:23:10,42.805,6.029,CST-1368DR,4537,5035,11809,01.118,551
2022-10-18T02:26:11,42.805,6.029,CST-1368DR,4537,5034,11806,01.119,551
2022-10-18T02:29:13,42.805,6.029,CST-1368DR,4537,5036,11811,01.117,551
2022-10-18T02:32:15,42.805,6.029,CST-1368DR,4537,5037,11813,01.116,551
2022-10-18T02:35:16,42.805,6.029,CST-1368DR,4537,5037,11814,01.116,551
2022-10-18T02:38:18,42.805,6.029,CST-1368DR,4537,5039,11818,01.115,551
2022-10-18T02:41:19,42.805,6.029,CST-1368DR,4537,5029,11795,01.122,551
2022-10-18T02:44:21,42.805,6.029,CST-1368DR,4537,5036,11811,01.117,551
2022-10-18T02:47:22,42.805,6.029,CST-1368DR,4537,5038,11815,01.116,551
2022-10-18T02:50:24,42.805,6.029,CST-1368DR,4537,5031,11799,01.121,551
2022-10-18T02:53:26,42.805,6.029,CST-1368DR,4537,5028,11793,01.123,551
2022-10-18T02:56:27,42.805,6.029,CST-1368DR,4537,5031,11800,01.121,551
2022-10-18T02:59:29,42.805,6.029,CST-1368DR,4537,5035,11808,01.118,551
2022-10-18T03:02:30,42.805,6.029,CST-1368DR,4537,5035,11809,01.118,551
2022-10-18T03:05:32,42.805,6.029,CST-1368DR,4537,5033,11804,01.119,551
2022-10-18T03:08:33,42.805,6.029,CST-1368DR,4537,5034,11807,01.118,551
2022-10-18T03:11:35,42.805,6.029,CST-1368DR,4537,5032,11802,01.120,551
2022-10-18T03:14:37,42.805,6.029,CST-1368DR,4537,5034,11806,01.119,551
2022-10-18T03:17:38,42.805,6.029,CST-1368DR,4537,5035,11809,01.118,551
2022-10-18T03:20:40,42.805,6.029,CST-1368DR,4537,5036,11811,01.117,551
2022-10-18T03:23:41,42.805,6.029,CST-1368DR,4537,5029,11795,01.122,551
2022-10-18T03:26:43,42.805,6.029,CST-1368DR,4537,5029,11794,01.123,551
2022-10-18T03:29:45,42.805,6.029,CST-1368DR,4537,5031,11800,01.121,551
2022-10-18T03:32:46,42.805,6.029,CST-1368DR,4537,5032,11802,01.120,551
2022-10-18T03:35:48,42.805,6.029,CST-1368DR,4537,5033,11804,01.119,551
2022-10-18T03:38:49,42.805,6.029,CST-1368DR,4537,5028,11793,01.123,551
2022-10-18T03:41:51,42.805,6.029,CST-1368DR,4537,5027,11789,01.125,551
2022-10-18T03:44:52,42.805,6.029,CST-1368DR,4537,5037,11814,01.116,551
2022-10-18T03:47:54,42.805,6.029,CST-1368DR,4537,5033,11804,01.119,551
2022-10-18T03:50:56,42.805,6.029,CST-1368DR,4537,5038,11815,01.116,551
2022-10-18T03:53:57,42.805,6.029,CST-1368DR,4537,5027,11790,01.124,551
2022-10-18T03:56:59,42.805,6.029,CST-1368DR,4537,5026,11788,01.125,551
2022-10-18T04:00:00,42.805,6.029,CST-1368DR,4537,5028,11792,01.123,551
2022-10-18T04:03:02,42.805,6.029,CST-1368DR,4537,5030,11798,01.121,551
2022-10-18T04:06:03,42.805,6.029,CST-1368DR,4537,5031,11798,01.121,551
2022-10-18T04:09:05,42.805,6.029,CST-1368DR,4537,5027,11789,01.125,551
2022-10-18T04:12:07,42.805,6.029,CST-1368DR,4537,5029,11795,01.122,551
2022-10-18T04:15:08,42.805,6.029,CST-1368DR,4537,5040,11821,01.114,551
2022-10-18T04:18:10,42.805,6.029,CST-1368DR,4537,5029,11794,01.123,551
2022-10-18T04:21:11,42.805,6.029,CST-1368DR,4537,5027,11791,01.124,551
2022-10-18T04:24:13,42.805,6.029,CST-1368DR,4537,5028,11792,01.123,551
2022-10-18T04:27:15,42.805,6.029,CST-1368DR,4537,5028,11792,01.123,551
2022-10-18T04:30:16,42.805,6.029,CST-1368DR,4537,5047,11836,01.109,551
2022-10-18T04:33:18,42.805,6.029,CST-1368DR,4537,5026,11788,01.125,551
2022-10-18T04:36:19,42.805,6.029,CST-1368DR,4537,5026,11788,01.125,551
2022-10-18T04:39:21,42.805,6.029,CST-1368DR,4537,5026,11788,01.125,551
2022-10-18T04:42:22,42.805,6.029,CST-1368DR,4537,5031,11798,01.121,551
2022-10-18T04:45:24,42.805,6.029,CST-1368DR,4537,5029,11794,01.123,551
2022-10-18T04:48:26,42.805,6.029,CST-1368DR,4537,5031,11798,01.121,551
2022-10-18T04:51:27,42.805,6.029,CST-1368DR,4537,5017,11766,01.132,551
2022-10-18T04:54:29,42.805,6.029,CST-1368DR,4537,5019,11771,01.131,551
2022-10-18T04:57:30,42.805,6.029,CST-1368DR,4537,5030,11798,01.121,551
2022-10-18T05:00:32,42.805,6.029,CST-1368DR,4537,5027,11789,01.125,551
2022-10-18T05:03:34,42.805,6.029,CST-1368DR,4537,5025,11786,01.126,551
2022-10-18T05:06:35,42.805,6.029,CST-1368DR,4537,5026,11787,01.125,551
2022-10-18T05:09:37,42.805,6.029,CST-1368DR,4537,5025,11786,01.126,551
2022-10-18T05:12:38,42.805,6.029,CST-1368DR,4537,5024,11784,01.126,551
2022-10-18T05:15:40,42.805,6.029,CST-1368DR,4537,5025,11786,01.126,551
2022-10-18T05:18:41,42.805,6.029,CST-1368DR,4537,5024,11782,01.127,551
2022-10-18T05:21:43,42.805,6.029,CST-1368DR,4537,5021,11775,01.129,551
2022-10-18T05:24:45,42.805,6.029,CST-1368DR,4537,5023,11781,01.127,551
2022-10-18T05:27:46,42.805,6.029,CST-1368DR,4537,5023,11781,01.127,551
2022-10-18T05:30:48,42.805,6.029,CST-1368DR,4537,5026,11787,01.125,551
2022-10-18T05:33:49,42.805,6.029,CST-1368DR,4537,5021,11776,01.129,551
2022-10-18T05:36:51,42.805,6.029,CST-1368DR,4537,5020,11774,01.130,550
2022-10-18T05:39:53,42.805,6.029,CST-1368DR,4537,5021,11775,01.129,551
2022-10-18T05:42:54,42.805,6.029,CST-1368DR,4537,5022,11777,01.129,551
2022-10-18T05:45:56,42.805,6.029,CST-1368DR,4537,5021,11775,01.129,551
2022-10-18T05:48:57,42.805,6.029,CST-1368DR,4537,5021,11775,01.129,551
2022-10-18T05:51:59,42.805,6.029,CST-1368DR,4537,5020,11773,01.130,551
2022-10-18T05:55:00,42.805,6.029,CST-1368DR,4537,5022,11778,01.128,551
2022-10-18T05:58:02,42.805,6.029,CST-1368DR,4537,5022,11777,01.129,551
2022-10-18T06:01:04,42.805,6.029,CST-1368DR,4537,5022,11778,01.128,551
2022-10-18T06:04:05,42.805,6.029,CST-1368DR,4537,5021,11775,01.129,551
2022-10-18T06:07:07,42.805,6.029,CST-1368DR,4537,5020,11772,01.130,551
2022-10-18T06:10:08,42.805,6.029,CST-1368DR,4537,5028,11793,01.123,551
2022-10-18T06:13:10,42.805,6.029,CST-1368DR,4537,5025,11785,01.126,551
2022-10-18T06:16:11,42.805,6.029,CST-1368DR,4537,5026,11788,01.125,551
2022-10-18T06:19:13,42.805,6.029,CST-1368DR,4537,5025,11785,01.126,551
2022-10-18T06:22:15,42.805,6.029,CST-1368DR,4537,5029,11795,01.122,551
2022-10-18T06:25:16,42.805,6.029,CST-1368DR,4537,5030,11798,01.121,551
2022-10-18T06:28:18,42.805,6.029,CST-1368DR,4537,5029,11795,01.122,551
2022-10-18T06:31:19,42.805,6.029,CST-1368DR,4537,5027,11789,01.125,551
2022-10-18T06:34:21,42.805,6.029,CST-1368DR,4537,5026,11788,01.125,551
2022-10-18T06:37:23,42.805,6.029,CST-1368DR,4537,5026,11788,01.125,551
2022-10-18T06:40:24,42.805,6.029,CST-1368DR,4537,5026,11788,01.125,551
2022-10-18T06:43:26,42.805,6.029,CST-1368DR,4537,5026,11787,01.125,551
2022-10-18T06:46:27,42.805,6.029,CST-1368DR,4537,5026,11787,01.125,551
2022-10-18T06:49:29,42.805,6.029,CST-1368DR,4537,5026,11788,01.125,551
2022-10-18T06:52:30,42.805,6.029,CST-1368DR,4537,5030,11796,01.122,551
2022-10-18T06:55:32,42.805,6.029,CST-1368DR,4537,5026,11788,01.125,551
2022-10-18T06:58:34,42.805,6.029,CST-1368DR,4537,5027,11789,01.125,551
2022-10-18T07:01:35,42.805,6.029,CST-1368DR,4537,5027,11790,01.124,551
2022-10-18T07:04:37,42.805,6.029,CST-1368DR,4537,5027,11789,01.125,551
2022-10-18T07:07:38,42.805,6.029,CST-1368DR,4537,5026,11788,01.125,551
2022-10-18T07:10:40,42.805,6.029,CST-1368DR,4537,5027,11789,01.125,551
2022-10-18T07:13:41,42.805,6.029,CST-1368DR,4537,5026,11787,01.125,551
2022-10-18T07:16:43,42.805,6.029,CST-1368DR,4537,5026,11787,01.125,551
2022-10-18T07:19:45,42.805,6.029,CST-1368DR,4537,5024,11783,01.127,551
2022-10-18T07:22:46,42.805,6.029,CST-1368DR,4537,5026,11788,01.125,551
2022-10-18T07:25:48,42.805,6.029,CST-1368DR,4537,5025,11785,01.126,551
2022-10-18T07:28:49,42.805,6.029,CST-1368DR,4537,5024,11783,01.127,551
2022-10-18T07:31:51,42.805,6.029,CST-1368DR,4537,5024,11782,01.127,551
2022-10-18T07:34:53,42.805,6.029,CST-1368DR,4537,5025,11784,01.126,551
2022-10-18T07:37:54,42.805,6.029,CST-1368DR,4537,5025,11784,01.126,551
2022-10-18T07:40:56,42.805,6.029,CST-1368DR,4537,5026,11787,01.125,551
2022-10-18T07:43:57,42.805,6.029,CST-1368DR,4537,5026,11787,01.125,551
2022-10-18T07:46:59,42.805,6.029,CST-1368DR,4537,5024,11783,01.127,551
2022-10-18T07:50:00,42.805,6.029,CST-1368DR,4537,5024,11784,01.126,551
2022-10-18T07:53:02,42.805,6.029,CST-1368DR,4537,5025,11786,01.126,551
2022-10-18T07:56:04,42.805,6.029,CST-1368DR,4537,5024,11782,01.127,551
2022-10-18T07:59:05,42.805,6.029,CST-1368DR,4537,5025,11784,01.126,551
2022-10-18T08:02:07,42.805,6.029,CST-1368DR,4537,5023,11779,01.128,551
2022-10-18T08:05:08,42.805,6.029,CST-1368DR,4537,5023,11781,01.127,551
2022-10-18T08:08:10,42.805,6.029,CST-1368DR,4537,5024,11782,01.127,551
2022-10-18T08:11:11,42.805,6.029,CST-1368DR,4537,5024,11783,01.127,551
2022-10-18T08:14:13,42.805,6.029,CST-1368DR,4537,5024,11782,01.127,551
2022-10-18T08:17:15,42.805,6.029,CST-1368DR,4537,5024,11782,01.127,551
2022-10-18T08:20:16,42.805,6.029,CST-1368DR,4537,5024,11784,01.126,551
2022-10-18T08:23:18,42.805,6.029,CST-1368DR,4537,5024,11782,01.127,551
2022-10-18T08:26:19,42.805,6.029,CST-1368DR,4537,5027,11789,01.125,551
2022-10-18T08:29:21,42.805,6.029,CST-1368DR,4537,5023,11781,01.127,551
2022-10-18T08:32:23,42.805,6.029,CST-1368DR,4537,5025,11784,01.126,551
2022-10-18T08:35:24,42.805,6.029,CST-1368DR,4537,5025,11785,01.126,551
2022-10-18T08:38:26,42.805,6.029,CST-1368DR,4537,5026,11787,01.125,551
2022-10-18T08:41:27,42.805,6.029,CST-1368DR,4537,5024,11783,01.127,551
2022-10-18T08:44:29,42.805,6.029,CST-1368DR,4537,5025,11784,01.126,551
2022-10-18T08:47:30,42.805,6.029,CST-1368DR,4537,5024,11782,01.127,551
2022-10-18T08:50:32,42.805,6.029,CST-1368DR,4537,5026,11787,01.125,551
2022-10-18T08:53:34,42.805,6.029,CST-1368DR,4537,5027,11789,01.125,551
2022-10-18T08:56:35,42.805,6.029,CST-1368DR,4537,5027,11789,01.125,551
2022-10-18T08:59:37,42.805,6.029,CST-1368DR,4537,5024,11784,01.126,551
2022-10-18T09:02:38,42.805,6.029,CST-1368DR,4537,5026,11787,01.125,551
2022-10-18T09:05:40,42.805,6.029,CST-1368DR,4537,5024,11784,01.126,551
2022-10-18T09:08:41,42.805,6.029,CST-1368DR,4537,5024,11782,01.127,551
2022-10-18T09:11:43,42.805,6.029,CST-1368DR,4537,5023,11779,01.128,551
2022-10-18T09:14:45,42.805,6.029,CST-1368DR,4537,5023,11781,01.127,551
2022-10-18T09:17:46,42.805,6.029,CST-1368DR,4537,5023,11781,01.127,551
2022-10-18T09:20:48,42.805,6.029,CST-1368DR,4537,5022,11779,01.128,551
2022-10-18T09:23:49,42.805,6.029,CST-1368DR,4537,5022,11779,01.128,551
2022-10-18T09:26:51,42.805,6.029,CST-1368DR,4537,5023,11781,01.127,551
2022-10-18T09:29:53,42.805,6.029,CST-1368DR,4537,5025,11784,01.126,551
2022-10-18T09:32:54,42.805,6.029,CST-1368DR,4537,5024,11783,01.127,551
2022-10-18T09:35:56,42.805,6.029,CST-1368DR,4537,5023,11780,01.128,551
2022-10-18T09:38:57,42.805,6.029,CST-1368DR,4537,5025,11784,01.126,551
2022-10-18T09:41:59,42.805,6.029,CST-1368DR,4537,5024,11784,01.126,551
2022-10-18T09:45:00,42.805,6.029,CST-1368DR,4537,5024,11782,01.127,551
2022-10-18T09:48:02,42.805,6.029,CST-1368DR,4537,5031,11799,01.121,551
2022-10-18T09:51:04,42.805,6.029,CST-1368DR,4537,5025,11786,01.126,551
2022-10-18T09:54:05,42.805,6.029,CST-1368DR,4537,5024,11783,01.127,551
2022-10-18T09:57:07,42.805,6.029,CST-1368DR,4537,5024,11783,01.127,551
2022-10-18T10:00:08,42.805,6.029,CST-1368DR,4537,5024,11782,01.127,551
2022-10-18T10:03:10,42.805,6.029,CST-1368DR,4537,5023,11781,01.127,551
2022-10-18T10:06:11,42.805,6.029,CST-1368DR,4537,5024,11782,01.127,551
2022-10-18T10:09:13,42.805,6.029,CST-1368DR,4537,5024,11782,01.127,551
2022-10-18T10:12:15,42.805,6.029,CST-1368DR,4537,5024,11782,01.127,551
2022-10-18T10:15:16,42.805,6.029,CST-1368DR,4537,5023,11781,01.127,551
2022-10-18T10:18:18,42.805,6.029,CST-1368DR,4537,5022,11777,01.129,551
2022-10-18T10:21:19,42.805,6.029,CST-1368DR,4537,5024,11782,01.127,551
2022-10-18T10:24:21,42.805,6.029,CST-1368DR,4537,5022,11779,01.128,551
2022-10-18T10:27:23,42.805,6.029,CST-1368DR,4537,5023,11779,01.128,551
2022-10-18T10:30:24,42.805,6.029,CST-1368DR,4537,5023,11781,01.127,551
2022-10-18T10:33:26,42.805,6.029,CST-1368DR,4537,5022,11779,01.128,551
2022-10-18T10:36:27,42.805,6.029,CST-1368DR,4537,5024,11783,01.127,551
2022-10-18T10:39:29,42.805,6.029,CST-1368DR,4537,5023,11781,01.127,551
2022-10-18T10:42:30,42.805,6.029,CST-1368DR,4537,5024,11782,01.127,551
2022-10-18T10:45:32,42.805,6.029,CST-1368DR,4537,5023,11781,01.127,551
2022-10-18T10:48:34,42.805,6.029,CST-1368DR,4537,5023,11779,01.128,551
2022-10-18T10:51:35,42.805,6.029,CST-1368DR,4537,5025,11784,01.126,551
2022-10-18T10:54:37,42.805,6.029,CST-1368DR,4537,5032,11801,01.120,551
2022-10-18T10:57:38,42.805,6.029,CST-1368DR,4537,5030,11796,01.122,551
2022-10-18T11:00:40,42.805,6.029,CST-1368DR,4537,5026,11788,01.125,551
2022-10-18T11:03:41,42.805,6.029,CST-1368DR,4537,5025,11785,01.126,551
2022-10-18T11:06:43,42.805,6.029,CST-1368DR,4537,5025,11786,01.126,551
2022-10-18T11:09:45,42.805,6.029,CST-1368DR,4537,5026,11788,01.125,551
2022-10-18T11:12:46,42.805,6.029,CST-1368DR,4537,5026,11788,01.125,551
2022-10-18T11:15:48,42.805,6.029,CST-1368DR,4537,5024,11784,01.126,551
2022-10-18T11:18:49,42.805,6.029,CST-1368DR,4537,5026,11788,01.125,551
2022-10-18T11:21:51,42.805,6.029,CST-1368DR,4537,5026,11787,01.125,551
2022-10-18T11:24:53,42.805,6.029,CST-1368DR,4537,5030,11796,01.122,551
2022-10-18T11:27:54,42.805,6.029,CST-1368DR,4537,5028,11792,01.123,551
2022-10-18T11:30:56,42.805,6.029,CST-1368DR,4537,5026,11788,01.125,551
2022-10-18T11:33:57,42.805,6.029,CST-1368DR,4537,5028,11793,01.123,551
2022-10-18T11:36:59,42.805,6.029,CST-1368DR,4537,5033,11804,01.119,551
2022-10-18T11:40:00,42.805,6.029,CST-1368DR,4537,5029,11794,01.123,551
2022-10-18T11:43:02,42.805,6.029,CST-1368DR,4537,5033,11803,01.120,551
2022-10-18T11:46:04,42.805,6.029,CST-1368DR,4537,5032,11802,01.120,551
2022-10-18T11:49:05,42.805,6.029,CST-1368DR,4537,5029,11795,01.122,551
2022-10-18T11:52:07,42.805,6.029,CST-1368DR,4537,5027,11791,01.124,551
2022-10-18T11:55:08,42.805,6.029,CST-1368DR,4537,5030,11798,01.121,551
2022-10-18T11:58:10,42.805,6.029,CST-1368DR,4537,5030,11798,01.121,551
2022-10-18T12:01:12,42.805,6.029,CST-1368DR,4537,5029,11794,01.123,551
2022-10-18T12:04:13,42.805,6.029,CST-1368DR,4536,5029,11797,01.122,551
2022-10-18T12:07:15,42.805,6.029,CST-1368DR,4536,5020,11776,01.129,551
2022-10-18T12:10:16,42.805,6.029,CST-1368DR,4536,5021,11778,01.128,551
2022-10-18T12:13:18,42.805,6.029,CST-1368DR,4537,5030,11798,01.121,551
2022-10-18T12:16:19,42.805,6.029,CST-1368DR,4537,5020,11773,01.130,551
2022-10-18T12:19:21,42.805,6.029,CST-1368DR,4537,5029,11795,01.122,551
2022-10-18T12:22:23,42.805,6.029,CST-1368DR,4537,5031,11800,01.121,551
2022-10-18T12:25:24,42.805,6.029,CST-1368DR,4536,5031,11802,01.120,551
2022-10-18T12:28:26,42.805,6.029,CST-1368DR,4536,5032,11804,01.119,551
2022-10-18T12:31:27,42.805,6.029,CST-1368DR,4536,5030,11800,01.121,551
2022-10-18T12:34:29,42.805,6.029,CST-1368DR,4536,5030,11800,01.121,550
2022-10-18T12:37:30,42.805,6.029,CST-1368DR,4536,5033,11807,01.118,551
2022-10-18T12:40:32,42.805,6.029,CST-1368DR,4536,5028,11794,01.123,551
2022-10-18T12:43:34,42.805,6.029,CST-1368DR,4536,5030,11800,01.121,551
2022-10-18T12:46:35,42.805,6.029,CST-1368DR,4536,5031,11801,01.120,551
2022-10-18T12:49:37,42.805,6.029,CST-1368DR,4536,5032,11804,01.119,551
2022-10-18T12:52:38,42.805,6.029,CST-1368DR,4536,5033,11807,01.118,551
2022-10-18T12:55:40,42.805,6.029,CST-1368DR,4536,5030,11800,01.121,551
2022-10-18T12:58:42,42.805,6.029,CST-1368DR,4536,5033,11805,01.119,551
2022-10-18T13:01:43,42.805,6.029,CST-1368DR,4536,5034,11808,01.118,551
2022-10-18T13:04:45,42.805,6.029,CST-1368DR,4536,5034,11808,01.118,551
2022-10-18T13:07:46,42.805,6.029,CST-1368DR,4536,5038,11818,01.115,551
2022-10-18T13:10:48,42.805,6.029,CST-1368DR,4536,5024,11785,01.126,551
2022-10-18T13:13:49,42.805,6.029,CST-1368DR,4536,5025,11788,01.125,551
2022-10-18T13:16:51,42.805,6.029,CST-1368DR,4536,5026,11791,01.124,551
2022-10-18T13:19:53,42.805,6.029,CST-1368DR,4536,5023,11783,01.127,551
2022-10-18T13:22:54,42.805,6.029,CST-1368DR,4536,5030,11799,01.121,551
2022-10-18T13:25:56,42.805,6.029,CST-1368DR,4537,5029,11794,01.123,551
2022-10-18T13:28:57,42.805,6.029,CST-1368DR,4537,5028,11791,01.124,551
2022-10-18T13:31:59,42.805,6.029,CST-1368DR,4537,5027,11791,01.124,551
2022-10-18T13:35:00,42.805,6.029,CST-1368DR,4536,5028,11794,01.123,551
2022-10-18T13:38:02,42.805,6.029,CST-1368DR,4537,5041,11823,01.113,551
2022-10-18T13:41:04,42.805,6.029,CST-1368DR,4537,5040,11821,01.114,551
2022-10-18T13:44:05,42.805,6.029,CST-1368DR,4537,5039,11818,01.115,551
2022-10-18T13:47:07,42.805,6.029,CST-1368DR,4537,5040,11821,01.114,551
2022-10-18T13:50:08,42.805,6.029,CST-1368DR,4537,5040,11821,01.114,551
2022-10-18T13:53:10,42.805,6.029,CST-1368DR,4537,5043,11828,01.111,551
2022-10-18T13:56:12,42.805,6.029,CST-1368DR,4537,5041,11822,01.113,551
2022-10-18T13:59:13,42.805,6.029,CST-1368DR,4537,5039,11819,01.114,551
2022-10-18T14:02:15,42.805,6.029,CST-1368DR,4537,5030,11796,01.122,551
2022-10-18T14:05:16,42.805,6.029,CST-1368DR,4537,5037,11813,01.116,551
2022-10-18T14:08:18,42.805,6.029,CST-1368DR,4537,5039,11818,01.115,551
2022-10-18T14:11:19,42.805,6.029,CST-1368DR,4537,5038,11815,01.116,551
2022-10-18T14:14:21,42.805,6.029,CST-1368DR,4537,5038,11815,01.116,551
2022-10-18T14:17:23,42.805,6.029,CST-1368DR,4537,5039,11818,01.115,551
2022-10-18T14:20:24,42.805,6.029,CST-1368DR,4537,5034,11806,01.119,551
2022-10-18T14:23:26,42.805,6.029,CST-1368DR,4537,5021,11775,01.129,551
2022-10-18T14:26:27,42.805,6.029,CST-1368DR,4537,5040,11820,01.114,551
2022-10-18T14:29:29,42.805,6.029,CST-1368DR,4537,5031,11799,01.121,551
2022-10-18T14:32:30,42.805,6.029,CST-1368DR,4537,5036,11810,01.117,551
2022-10-18T14:35:32,42.805,6.029,CST-1368DR,4537,5041,11822,01.113,551
2022-10-18T14:38:34,42.805,6.029,CST-1368DR,4537,5041,11823,01.113,551
2022-10-18T14:41:35,42.805,6.029,CST-1368DR,4537,5039,11818,01.115,551
2022-10-18T14:44:37,42.805,6.029,CST-1368DR,4537,5032,11801,01.120,551
2022-10-18T14:47:38,42.805,6.029,CST-1368DR,4537,5031,11799,01.121,551
2022-10-18T14:50:40,42.805,6.029,CST-1368DR,4537,5043,11827,01.112,551
2022-10-18T14:53:42,42.805,6.029,CST-1368DR,4537,5042,11825,01.112,551
2022-10-18T14:56:43,42.805,6.029,CST-1368DR,4537,5040,11821,01.114,551
2022-10-18T14:59:45,42.805,6.029,CST-1368DR,4537,5037,11814,01.116,551
2022-10-18T15:02:46,42.805,6.029,CST-1368DR,4537,5044,11829,01.111,551
2022-10-18T15:05:48,42.805,6.029,CST-1368DR,4537,5040,11819,01.114,551
2022-10-18T15:08:49,42.805,6.029,CST-1368DR,4537,5043,11828,01.111,551
2022-10-18T15:11:51,42.805,6.029,CST-1368DR,4537,5038,11815,01.116,551
2022-10-18T15:14:53,42.805,6.029,CST-1368DR,4537,5039,11817,01.115,551
2022-10-18T15:17:54,42.805,6.029,CST-1368DR,4537,5042,11825,01.112,551
2022-10-18T15:20:56,42.805,6.029,CST-1368DR,4537,5040,11819,01.114,551
2022-10-18T15:23:57,42.805,6.029,CST-1368DR,4537,5038,11816,01.115,551
2022-10-18T15:26:59,42.805,6.029,CST-1368DR,4537,5041,11823,01.113,550
2022-10-18T15:30:00,42.805,6.029,CST-1368DR,4537,5041,11822,01.113,551
2022-10-18T15:33:02,42.805,6.029,CST-1368DR,4537,5043,11826,01.112,551
2022-10-18T15:36:04,42.805,6.029,CST-1368DR,4537,5043,11828,01.111,551
2022-10-18T15:39:05,42.805,6.029,CST-1368DR,4537,5044,11830,01.111,551
2022-10-18T15:42:07,42.805,6.029,CST-1368DR,4537,5045,11832,01.110,551
2022-10-18T15:45:08,42.805,6.029,CST-1368DR,4537,5044,11830,01.111,551
2022-10-18T15:48:10,42.805,6.029,CST-1368DR,4536,5044,11833,01.110,551
2022-10-18T15:51:12,42.805,6.029,CST-1368DR,4536,5043,11831,01.110,551
2022-10-18T15:54:13,42.805,6.029,CST-1368DR,4536,5040,11823,01.113,551
2022-10-18T15:57:15,42.805,6.029,CST-1368DR,4536,5044,11832,01.110,551
2022-10-18T16:00:16,42.805,6.029,CST-1368DR,4537,5047,11836,01.109,551
2022-10-18T16:03:18,42.805,6.029,CST-1368DR,4537,5043,11828,01.111,551
2022-10-18T16:06:19,42.805,6.029,CST-1368DR,4537,5045,11831,01.110,551
2022-10-18T16:09:21,42.805,6.029,CST-1368DR,4536,5044,11831,01.110,551
2022-10-18T16:12:23,42.805,6.029,CST-1368DR,4537,5042,11825,01.112,551
2022-10-18T16:15:24,42.805,6.029,CST-1368DR,4537,5044,11829,01.111,551
2022-10-18T16:18:26,42.805,6.029,CST-1368DR,4537,5045,11833,01.110,551
2022-10-18T16:21:27,42.805,6.029,CST-1368DR,4537,5044,11830,01.111,551
2022-10-18T16:24:29,42.805,6.029,CST-1368DR,4537,5043,11827,01.112,551
2022-10-18T16:27:31,42.805,6.029,CST-1368DR,4537,5041,11823,01.113,551
2022-10-18T16:30:32,42.805,6.029,CST-1368DR,4537,5046,11835,01.109,551
2022-10-18T16:33:34,42.805,6.029,CST-1368DR,4537,5041,11823,01.113,551
2022-10-18T16:36:35,42.805,6.029,CST-1368DR,4537,5045,11832,01.110,551